Other Public Products
Issued by NWS Grand Forks, ND

Home | Current Version | Previous Version | Graphics & Text | Print | Product List | Glossary On
Versions: 1 2 3 4 5 6 7 8 9 10 11 12 13 14 15 16 17 18 19 20 21 22 23 24 25 26 27 28 29 30 31 32 33 34 35 36 37 38 39 40 41 42 43 44 45 46 47 48 49 50
766
FPUS83 KFGF 251110
OPUFGF
PRAIRIE TO PINES WEATHER ROUNDUP
NATIONAL WEATHER SERVICE EASTERN NORTH DAKOTA/GRAND FORKS ND
600 AM CDT MON SEP 25 2017

 **SATELLITE DATA USED TO AUGMENT SKY COVER AT AUTOMATED STATIONS**
 *****  WEATHER ACROSS EASTERN NORTH DAKOTA  *****

CITY           SKY/WX    TMP DP  RH WIND       PRES   REMARKS
GRAND FORKS    CLOUDY    49  47  93 N12       30.08R
GRAND FORKS AF CLOUDY    48  46  93 N7        30.10S
GRAND CITY NWS NOT AVBL
BUXTON         NOT AVBL
DEVILS LAKE    CLOUDY    47  42  83 N10       30.13
FARGO          CLOUDY    50  48  93 N9        30.07R
WAHPETON ARPT  CLOUDY    50  46  87 N12G17    30.06S
$$

 *****  WEATHER ACROSS CENTRAL AND WESTERN NORTH DAKOTA  *****

CITY           SKY/WX    TMP DP  RH WIND       PRES   REMARKS
JAMESTOWN      CLOUDY    48  45  89 N6        30.11R
BISMARCK       CLOUDY    48  46  93 N6        30.14S
MINOT          CLOUDY    47  44  90 NW6       30.13R
MINOT AFB      CLOUDY    47  44  91 CALM      30.12R
GARRISON         N/A     45  44  97 CALM      30.14R
WILLISTON      CLOUDY    46  44  93 CALM      30.14F
DICKINSON      CLOUDY    43  41  93 W3        30.13S
HETTINGER      CLOUDY    43  37  79 NE5       30.16R
$$

 *****  OTHER OBSERVATIONS NORTHEAST NORTH DAKOTA  *****

CITY           SKY/WX    TMP DP  RH WIND       PRES   REMARKS
WALHALLA       FAIR     N/A N/A N/A NW8       30.11S
LANGDON        NOT AVBL
CAVALIER       CLOUDY    48  45  87 N9        30.10R
GRAFTON        NOT AVBL
CANDO          CLOUDY    46  46 100 N6        30.14S
FORT TOTTEN    NOT AVBL
ROLLA          PTSUNNY   39  39 100 N6        30.13S
RUGBY          NOT AVBL
 ***** THE ABOVE OBSERVATIONS ARE NON NWS ARE NOT QUALITY
        CONTROLLED AND MAY MIS-REPORT RAIN FOR SNOW...
$$

 *****  OTHER OBSERVATIONS SOUTHEAST NORTH DAKOTA *****

CITY           SKY/WX    TMP DP  RH WIND       PRES   REMARKS
COOPERSTOWN    CLOUDY    48  48 100 N10       30.11R FOG
VALLEY CITY    NOT AVBL
OAKES          NOT AVBL
GWINNER          N/A     50  48  93 N10       30.08R
SHEYENNE NWR     N/A     50  48  94 N7        29.95S
BUFFALO        NOT AVBL
WYNDMERE       NOT AVBL
 ***** THE ABOVE OBSERVATIONS ARE NON NWS ARE NOT QUALITY
       CONTROLLED AND MAY MIS-REPORT RAIN FOR SNOW...
$$

  *****  WEATHER ACROSS NORTHERN MINNESOTA  *****

CITY           SKY/WX    TMP DP  RH WIND       PRES   REMARKS
FLAG ISLAND    CLOUDY    48  46  93 NW15      30.01R
WARROAD        CLOUDY    46  43  87 NW7       30.04R FOG
ROSEAU         CLOUDY    46  43  87 NW12      30.05R
HALLOCK        CLOUDY    48  46  93 N14       30.07S
THF RVR FALLS  CLOUDY    47  46  97 N10       30.07S
HALSTAD        NOT AVBL
FOSSTON        CLOUDY    46  45  93 NW12      30.05S FOG
BAUDETTE       CLOUDY    49  49 100 NW9       30.02R
WASKISH        CLOUDY    48  46  93 NW9       30.02R
CROOKSTON      CLOUDY    48  46  93 N8        30.08S
$$
  *****  WEATHER ACROSS CENTRAL AND WEST MINNESOTA  *****

CITY           SKY/WX    TMP DP  RH WIND       PRES   REMARKS
BEMIDJI        CLOUDY    47  47 100 NW6       30.03R FOG
PARK RAPIDS    CLOUDY    49  47  93 NW8       30.03R FOG
WADENA         FAIR      48  48 100 W6        30.04R
DETROIT LAKES  CLOUDY    46  46 100 NW12      30.06R FOG
MOORHEAD       CLOUDY    48  46  93 N6        30.08R
FERGUS FALLS   MOCLDY    48  48 100 N9        30.05F
ELBOW LAKE     PTSUNNY   50  48  95 N13       30.04F
MORRIS MN      CLOUDY    52  48  87 N6        30.05R
STAPLES        DRIZZLE   48  46  93 N3        30.03R
WHEATON        CLOUDY    50  46  87 NW8       30.08R
$$
  *****  WEATHER ELSEWHERE ACROSS MINNESOTA  *****

CITY           SKY/WX    TMP DP  RH WIND       PRES   REMARKS
DULUTH         CLOUDY    56  55  97 NW10      29.96S
INTRNTL FALLS  CLOUDY    50  49  96 W8        29.99R FOG
ELY            FAIR      52  52 100 W5        29.97R
CLOQUET        CLOUDY    55  52  88 NW7       29.98S
BRAINERD       CLOUDY    52  49  89 NW7       30.01S
HIBBING        CLOUDY    51  49  92 N8        29.99R
ALEXANDRIA     LGT RAIN  50  49  96 NW6       30.04S
SAINT CLOUD    LGT RAIN  53  53 100 NW9       29.98F
MINNEAPOLIS    LGT RAIN  61  61 100 NW9       29.97R FOG
$$

  *****  WEATHER ACROSS SOUTH DAKOTA  *****

CITY           SKY/WX    TMP DP  RH WIND       PRES   REMARKS
SIOUX FALLS    LGT RAIN  53  53 100 N10       30.02R
BROOKINGS      LGT RAIN  50  48  93 N9        30.05R
WATERTOWN      CLOUDY    49  47  93 N9        30.07R
HURON          CLOUDY    50  48  93 N9        30.07F
SISSETON         N/A     51  48  89 N9        30.06R
ABERDEEN       CLOUDY    49  46  90 NW10      30.10S
MITCHELL       LGT RAIN  51  50  96 N10       30.05F
PIERRE         CLOUDY    48  44  86 N7        30.11R
MOBRIDGE       CLOUDY    50  46  86 N7        30.10F
RAPID CITY     NOT AVBL
$$

  *****  SOME WEATHER IN NEARBY STATES *****

CITY           SKY/WX    TMP DP  RH WIND       PRES   REMARKS
GLASGOW MT     MOCLDY    38  37  97 E9        30.11S
GREAT FALLS MT FAIR      39  30  70 S12       30.04S
CHEYENNE WY    FOG       38  37  97 CALM      30.11R VSB 3/4
SCOTTSBLUFF NE CLOUDY    42  40  92 N5        30.12R
OMAHA NE       FAIR      62  58  86 SE3       29.92F
DES MOINES IA  MOCLDY    70  64  81 CALM      29.92S
DAVENPORT IA   FAIR      63  60  90 SE5       29.98S
CHICAGO IL     FAIR      68  57  68 CALM      30.00R
EAU CLAIRE WI  FAIR      63  62  97 CALM      29.94R
LA CROSSE WI   MOCLDY    68  64  87 CALM      29.94R
$$

  *****  SOME NATIONAL WEATHER *****

CITY           SKY/WX    TMP DP  RH WIND       PRES   REMARKS
LA GUARDIA NY  FAIR      73  66  78 NE6       30.04R
RALEIGH NC     MOCLDY    65  62  90 NE6       30.00S
ATLANTA GA     FAIR      71  64  78 NE7       30.02S
NEW ORLEANS LA FAIR      76  73  91 NE3       29.88F
OKLAHOMA CITY  MOCLDY    70  64  81 S8        29.91R
ALBUQUERQUE NM FAIR      54  24  31 N5        29.98R
SALT LAKE CITY MOCLDY    44  41  89 SE6       30.11S
LOS ANGELES CA FAIR      64  41  42 E3        29.83S
BOISE ID       FAIR      41  35  79 SW7       30.07R
SEATTLE WA     CLOUDY    58  51  78 CALM      30.09F
$$

*** WEATHER ACROSS MANITOBA...SASKATCHEWAN AND ONTARIO ***
                ***ONTARIO***

CITY           SKY/WX    TMP DP  RH WIND       PRES   REMARKS
GERALDTON      MOCLDY    66  63  88 SW10      29.82R
THUNDER BAY    MOCLDY    61  61 100 W5        29.85R
SIOUX LOOKOUT  LGT RAIN  50  48  93 N5        29.95R FOG
TORONTO        PTCLDY    72  64  78 CALM      30.08S
BIG TROUT LK   LGT RAIN  43  43 100 N7        29.97R FOG
PICKLE LAKE    DRIZZLE   46  46 100 NW6       29.93  FOG
DRYDEN         CLOUDY    48  48 100 NW7       29.97R
KENORA         NOT AVBL
$$
                *** MANITOBA***

CITY           SKY/WX    TMP DP  RH WIND       PRES   REMARKS
BRANDON        CLOUDY    45  41  87 CALM      30.14S
DAUPHIN        CLOUDY    45  45 100 W5        30.15R
ISLAND LAKE    NOT AVBL
PILOT MOUND      N/A     45  43  93 NW8         N/A
THE PAS        CLEAR     37  36  93 SE6       30.14R
THOMPSON       PTCLDY    28  27  93 CALM      30.17R
WINNIPEG       CLOUDY    46  45  93 NW12      30.10R
LYNN LAKE      CLOUDY    36  36 100 SE5       30.12S
CHURCHILL      CLOUDY    39  34  81 W5        30.17S
GILLAM         CLOUDY    37  34  87 NE10      30.17R
$$
                ***SASKATCHEWAN***

CITY           SKY/WX    TMP DP  RH WIND       PRES   REMARKS
ESTEVAN        FOG       36  36 100 VRB2      30.14R VSB 1/4
KINDERSLEY     CLEAR     36  30  80 S3        30.00F
LLOYDMINSTER   CLOUDY    46  36  66 S10       29.94S
PRINCE ALBERT  MOCLDY    37  36  93 VRB2      30.06S
REGINA         CLOUDY    43  36  75 S7        30.11S
YORKTON        CLOUDY    45  41  87 SW3       30.12S



USA.gov is the U.S. government's official web portal to all federal, state and local government web resources and services.